Location: Colebrook
(42.0017°N, 73.0973°W)
Time: 21:42:46
(UTC-04:00)

N. Korean satellite - Pass Details

Date: 05 October 2021
Orbit: 450 x 495 km, 97.3° (Epoch: 22 October)

Event Time Altitude Azimuth Distance (km) Brightness Sun altitude
Rises 05:49:03 0° 18° (NNE) 2,563 10.6 -12.9°
Reaches altitude 10° 05:51:11 10° 24° (NNE) 1,684 9.7 -12.5°
Maximum altitude 05:54:41 45° 99° (E) 676 7.8 -11.8°
Drops below altitude 10° 05:58:11 10° 173° (S) 1,685 9.3 -11.2°
Sets 06:00:18 0° 180° (S) 2,564 10.2 -10.8°
